Weather in Ajmer

India     26°26′53″N   74°38′44″E
temp.,
°C
wind,
m/s
gust,
m/s
humid.,
%
clouds,
%
prec.,
mm/h
press.,
hPa
HPBL,
m
1 august, sun
sun123:30+24nw169499 26.9 1001214
02:30+25w599583 6.6 999354
05:30+25wsw6109383 9.6 999451
08:30+24w81292100 1.4 1001702
11:30+24w71192100 3.3 1000522
14:30+24w81194100 2.3 998382
17:30+24w81291100 3.3 998370
20:30+23w5119298 0.2 998367
2 august, mon
mon223:30+24wsw4895100 3.9 999309
02:30+24wsw71191100 4.3 998414
05:30+24wsw81594100 4.3 998578
08:30+25wsw61289100 0.2 1000731
11:30+26wsw6983100 0.4 1001776
14:30+28wsw5871100 0.0 999883
17:30+26wsw71281100 1.9 999586
20:30+24wsw5993100 15.4 1001441
3 august, tue
tue323:30+24wsw71291100 17.6 1001455
02:30+25wsw71390100 4.9 1000499
05:30+24wsw81493100 9.0 1000623
08:30+24w81394100 5.6 1002634
11:30+24w81491100 7.4 1002680
14:30+25w8129098 0.1 1001668
17:30+25w8118888 0.2 1001617
20:30+24w61092100 0.0 1002407
4 august, wed
wed423:30+24wsw499336 1.6 1003325
02:30+24wsw61093100 1.8 1002336
05:30+24w499197 1.9 1002388
08:30+25wsw5787100 0.1 1004446
11:30+27w677891 0.1 1004795
14:30+31w556262 0.0 10011281
17:30+30wsw6866100 0.2 1000491
20:30+27wsw71176100 0.1 1002492
5 august, thu
thu523:30+26wsw81283100 0.1 1002408
02:30+25wsw7128873 0.0 1000372
05:30+24w6129166 0.0 1001396
08:30+26wsw788215 0.0 1002500
11:30+30wsw5563100 0.0 1002931
14:30+33wsw555494 0.0 10001276
17:30+32wsw6556100 0.0 9991250
20:30+27wsw61068100 0.3 1001374